Location: Erlen
(47.5481°N, 9.2342°E)
Time: 07:30:56
(UTC+00:00)

Daily predictions for brighter satellites

Satellite Brightness Start Highest point End
(mag) Time Altitude Azimuth Time Altitude Azimuth Time Altitude Azimuth
Envisat 3.5 16:38:02 10° S 16:43:05 68° WSW 16:48:11 10° NNW
ADEOS Rocket 3.4 16:37:22 10° NNE 16:43:46 86° WNW 16:50:53 10° SSW
Okean O Rocket 1.6 16:40:49 10° SSE 16:45:11 87° ENE 16:49:34 10° NNW
FALCON 9 DEB 4.3 16:42:16 10° WNW 16:45:23 31° N 16:48:30 10° ENE
YAOGAN 1 4.0 16:44:26 10° ESE 16:47:21 18° ENE 16:50:16 10° NNE
ERBS 4.3 16:45:12 10° WNW 16:47:39 19° NNW 16:50:06 10° NE
GRACE-FO 1 4.5 16:44:16 10° N 16:47:54 80° E 16:51:30 10° S
FALCON 9 DEB 3.8 16:44:58 10° SSW 16:47:57 36° SE 16:50:57 10° ENE
USA 281 3.4 16:41:29 10° SSE 16:48:03 85° WSW 16:54:41 10° NNW
GRACE-FO 2 4.5 16:44:39 10° N 16:48:17 81° E 16:51:53 10° S
FALCON 9 DEB 3.6 16:49:10 10° SW 16:52:12 41° SE 16:55:10 10° ENE
Landsat 5 4.4 16:48:36 10° N 16:52:21 48° WNW 16:56:10 10° SW
CZ-2C R/B 4.2 16:48:55 10° ESE 16:53:38 27° ENE 16:58:14 10° N
SMAP 3.3 16:49:25 10° S 16:54:04 77° WSW 16:58:45 10° NNW
Meteor 2-14 Rocket 4.4 16:47:56 10° N 16:54:07 80° E 17:00:14 10° SSE
Cosmos 2219 3.5 16:49:23 10° NNW 16:55:00 49° NE 17:00:34 10° SE
Cosmos 1455 4.2 16:55:50 10° E 16:56:10 10° E 16:56:10 10° E
Cosmos 1726 Rocket 3.7 16:52:51 10° SSE 16:57:02 49° E 17:01:17 10° NNE
Cosmos 1943 Rocket 4.5 16:53:43 10° W 16:57:21 17° NW 17:00:59 10° N
Cosmos 1758 Rocket 3.9 16:55:08 10° NNW 16:59:32 71° W 17:03:52 10° S
USA 307 3.6 16:56:57 10° WNW 17:01:03 41° NNE 17:04:41 12° E
Cosmos 2228 2.9 16:59:51 10° S 17:04:05 78° E 17:08:23 10° NNE
FALCON 9 DEB 3.4 17:01:01 10° SW 17:04:10 49° SE 17:06:44 14° ENE
YAOGAN 6 4.2 17:00:57 10° S 17:04:24 41° W 17:07:56 10° NNW
Cosmos 1939 Rocket 3.1 17:01:16 10° SE 17:05:03 45° ENE 17:08:48 10° N
CZ-4B R/B 1.1 17:02:24 10° NNE 17:05:38 75° ESE 17:08:47 10° S
USA 308 3.5 17:01:48 10° WNW 17:05:54 42° NNE 17:09:20 14° E
ATLAS 5 CENTAUR R/B 3.8 17:04:53 10° WNW 17:07:58 18° NNW 17:11:23 10° NNE
Helios 1A Rocket 3.4 17:08:24 10° SE 17:12:15 39° ENE 17:16:05 10° N
Cosmos 1606 Rocket 3.5 17:08:16 10° S 17:12:38 90° NNE 17:17:05 10° N
GENESIS II 4.5 17:11:35 10° SW 17:15:37 73° NW 17:19:40 10° NE
FALCON 9 DEB 3.0 17:12:36 10° SW 17:15:47 64° SSE 17:17:56 19° ENE
CZ-4B R/B 4.4 17:10:48 10° S 17:16:12 49° W 17:21:34 10° NNW
ARGOS 4.3 17:13:09 10° ESE 17:17:10 23° ENE 17:21:18 10° N
Okean-O 3.0 17:14:32 10° SE 17:18:42 42° ENE 17:22:54 10° N
SKYMED 2 3.7 17:15:33 10° NNE 17:19:48 52° E 17:24:02 10° S
Cosmos 1689 Rocket 2.3 17:18:15 10° NNE 17:21:03 42° E 17:23:47 10° S
Cosmos 1656 4.0 17:16:22 10° S 17:21:37 44° ESE 17:26:57 10° NE
Cosmos 1400 Rocket 2.9 17:20:20 10° S 17:24:22 59° E 17:28:24 10° NNE
Cosmos 1745 Rocket 4.3 17:18:53 10° N 17:24:52 43° ENE 17:30:51 10° SE
H-2A R/B 2.8 17:21:48 10° SE 17:26:36 33° ENE 17:31:26 10° N
PSLV R/B 4.1 17:24:00 10° NNE 17:28:06 51° E 17:32:08 10° S
GEOS 3 Rocket 4.1 17:24:32 15° ESE 17:28:36 43° NE 17:33:41 10° NNW
Cosmos 2227 Rocket 2.2 17:23:21 10° NNW 17:29:01 66° ENE 17:34:39 10° SE
CZ-4 R/B 1.5 17:25:18 10° SE 17:29:01 45° ENE 17:32:43 10° N
Cosmos 2058 3.4 17:25:52 10° N 17:29:38 35° ENE 17:33:24 10° SE
Cosmos 1892 2.9 17:27:15 10° N 17:31:02 48° ENE 17:34:48 10° SSE
Cosmos 2263 Rocket 3.7 17:30:20 10° N 17:34:11 18° NE 17:35:34 17° ENE
CSL-04 Rocket 4.1 17:29:46 10° SE 17:34:53 39° ENE 17:39:58 10° N
Cosmos 1408 3.2 17:31:50 10° N 17:35:12 34° ENE 17:37:15 19° SE
BREEZE-M R/B 3.7 17:27:02 10° W 17:35:40 71° N 17:37:09 28° ENE
NOSS 3-4 (A) 4.5 17:34:15 10° NW 17:40:23 35° NNE 17:44:11 22° E
CZ-4C R/B 4.0 17:35:28 10° NW 17:40:41 24° NNE 17:44:25 17° ENE
Cosmos 1300 3.7 17:39:05 10° SSW 17:42:47 48° WNW 17:46:31 10° N
Cosmos 2058 Rocket 3.2 17:41:32 10° S 17:46:01 82° W 17:50:34 10° N
Cosmos 1697 Rocket 3.1 17:41:06 10° S 17:46:13 38° ESE 17:49:38 19° NE
IRS-1C Rocket 4.4 17:42:32 10° S 17:47:47 70° WSW 17:53:04 10° NNW
SL-4 R/B 2.3 17:44:29 10° WNW 17:47:57 45° N 17:49:04 34° NE
CZ-2D R/B 3.2 17:44:09 10° S 17:47:57 82° WSW 17:51:47 10° NNW
SeaSat 1 3.1 17:46:28 27° E 17:48:10 35° NE 17:52:37 10° NNW
Cosmos 1346 Rocket 2.7 17:46:00 10° N 17:49:58 59° ENE 17:53:54 10° SSE
NOSS 3-3 (A) 4.2 17:45:32 10° S 17:50:56 42° ESE 17:54:17 24° ENE
NOSS 3-3 (C) 4.2 17:45:37 10° S 17:51:03 42° ESE 17:54:24 24° ENE
USA 305 3.0 17:47:40 10° WNW 17:51:58 63° NNE 17:53:27 37° E
Cosmos 1825 2.9 17:48:41 10° N 17:51:38 33° NE 17:51:38 33° NE
Cosmos 1709 Rocket 4.4 17:48:36 10° N 17:54:39 42° ENE 17:59:42 14° SE
Cosmos 44 3.9 17:50:22 10° SW 17:54:49 53° NW 17:59:04 13° NNE
USA 215 3.8 17:51:39 23° ENE 17:55:16 44° NNE 18:01:24 10° NW
Cosmos 1315 Rocket 3.0 17:51:48 10° SSE 17:55:33 44° E 17:56:19 39° ENE
SJ-11-01 4.3 17:53:43 13° SSE 17:57:44 55° ENE 18:02:20 10° N
USA 306 2.9 17:54:05 10° WNW 17:58:22 67° NNE 17:59:35 43° E
BREEZE-M R/B 3.6 17:57:51 10° WNW 18:01:52 76° N 18:05:18 31° E
ATLAS 2AS CENTAUR R/B 3.5 17:55:29 10° NW 18:02:33 38° NNE 18:05:17 29° ENE
Cosmos 968 Rocket 3.6 17:59:08 10° NNW 18:04:23 79° WSW 18:09:33 10° SSE
Cosmos 1340 3.9 18:01:11 10° NNW 18:04:47 43° W 18:08:22 10° SSW
COSMO-SKYMED 1 3.4 18:03:38 10° N 18:07:52 51° WNW 18:12:04 10° SSW
MOS 1 Rocket 3.3 18:04:05 10° NNE 18:08:42 57° E 18:13:34 10° S
Cosmos 2297 Rocket 2.9 18:03:18 10° NW 18:08:49 54° WSW 18:14:19 10° S
Cosmos 1980 Rocket 3.2 18:04:04 10° SSE 18:07:19 27° SE 18:07:19 27° SE
Cosmos 1076 Rocket 3.3 18:05:44 10° N 18:09:59 68° ENE 18:11:35 36° SSE
Aureole 3 Rocket 4.2 18:07:50 10° SSW 18:11:45 50° WNW 18:17:10 10° N
Cosmos 2315 Rocket 4.2 18:09:14 10° SSE 18:15:03 45° E 18:20:54 10° NNE
CSL-04 Debris 4.1 18:09:48 10° SSE 18:15:14 84° ENE 18:20:44 10° NNW
S3M 3.8 18:09:24 10° S 18:15:31 84° E 18:21:43 10° N
Lacrosse 5 3.0 18:18:10 10° NW 18:22:36 29° N 18:23:30 28° NNE
FALCON 9 DEB 4.2 18:19:35 10° WNW 18:22:07 38° NNW 18:22:07 38° NNW
YAOGAN 1 3.2 18:18:48 10° S 18:23:02 56° W 18:27:20 10° NNW
FALCON 9 DEB 4.1 18:20:52 10° W 18:23:30 42° NW 18:23:30 42° NW
Cosmos 2360 4.2 18:19:24 10° S 18:25:00 59° ESE 18:26:15 48° ENE
FALCON 9 DEB 4.4 18:25:08 10° W 18:27:30 36° NW 18:27:30 36° NW
Cosmos 1812 Rocket 3.4 18:26:00 10° S 18:30:25 86° E 18:30:37 81° NE
Cosmos 1455 2.4 18:27:28 10° SSW 18:31:13 67° W 18:31:13 67° W
CZ-2C R/B 3.9 18:27:26 10° S 18:33:09 58° W 18:38:43 10° NNW
Cosmos 1503 Rocket 4.1 18:29:29 10° NNW 18:34:43 73° WSW 18:37:12 32° S
Meteor 2-3 Rocket 4.4 18:30:34 10° N 18:34:43 38° NE 18:34:43 38° NE
Cosmos 44 Rocket 4.4 18:32:49 10° SSW 18:35:27 31° S 18:35:27 31° S
Cosmos 2278 4.2 18:32:44 10° S 18:36:45 42° SSE 18:36:45 42° SSE
USA 307 3.2 18:37:04 10° WNW 18:40:52 65° W 18:40:52 65° W
Meteor 2-10 Rocket 4.2 18:39:33 10° SSW 18:44:43 53° WNW 18:49:46 10° N
USA 308 3.4 18:41:55 10° WNW 18:45:31 57° W 18:45:31 57° W
Cosmos 1354 Rocket 4.3 18:41:02 10° NNW 18:46:16 67° WSW 18:47:53 43° S
Cosmos 2082 4.2 18:42:18 10° NW 18:47:56 58° WSW 18:50:45 29° S
ATLAS 5 CENTAUR R/B 4.2 18:52:08 10° NNW 18:54:40 14° N 18:55:01 14° N
ARGOS 3.5 18:54:41 34° S 18:56:59 64° WSW 19:02:25 10° NNW
Cosmos 2369 3.9 18:56:14 10° SW 19:01:56 71° WNW 19:03:11 54° N
CZ-4 R/B 4.2 19:01:48 10° SW 19:04:17 16° W 19:06:45 10° NW
Ariane Rocket 4.0 19:07:51 39° N 19:07:51 39° N 19:11:00 10° NNW
H-2A R/B 3.3 19:00:48 10° SSW 19:05:53 41° W 19:11:04 10° NNW
GEOS 3 Rocket 4.4 19:05:41 44° SSW 19:06:34 48° WSW 19:11:47 10° NW
Cosmos 2227 Rocket 4.4 19:08:21 10° NW 19:12:32 22° W 19:16:42 10° SSW
Cosmos 2263 Rocket 3.0 19:13:23 10° NNW 19:17:16 44° NNW 19:17:16 44° NNW
Atlas Centaur 2 4.4 19:14:04 10° SW 19:20:08 23° S 19:20:08 23° S
SeaSat 1 3.6 19:26:15 39° W 19:26:15 39° W 19:30:17 10° NW
Cosmos 1697 Rocket 3.8 19:24:55 10° WSW 19:30:10 40° NW 19:31:25 35° NNW
CZ-4C R/B 3.3 19:23:57 10° NW 19:29:36 50° N 19:29:36 50° N
NOSS 3-4 (A) 3.8 19:25:00 10° NW 19:31:39 79° W 19:31:39 79° W
NOSS 3-4 (C) 3.8 19:25:06 10° NW 19:31:43 79° W 19:31:43 79° W
DEBRIS 4.4 19:24:57 10° WSW 19:36:50 65° W 19:36:50 65° W
USA 215 3.5 19:39:00 64° NW 19:39:00 64° NW 19:44:28 10° NW
Cosmos 1980 Rocket 4.2 19:47:20 10° SW 19:49:11 21° WSW 19:49:11 21° WSW
ATLAS 2AS CENTAUR R/B 3.2 19:46:42 10° NW 19:52:43 58° WNW 19:52:43 58° WNW
Lacrosse 5 4.3 20:01:23 10° NW 20:02:41 18° NW 20:02:41 18° NW
